GEFSCGP_850_meantemp_252.txt.gz
Temperature
6 4 4 4 5 6 5 5 5 5 5 4 3 3 2 2 1 1 1 1 1 1 2 3 3 4 4 5 5 6 6 7 7 7 7 8 8 8 8 8 8 8 8 8
4 4 5 5 5 5 5 5 4 4 4 4 2 2 2 1 1 0 -0 -0 -0 1 2 2 2 3 4 4 4 5 5 6 6 6 6 7 7 7 7 8 8 7 8 8
5 5 5 5 5 5 5 4 4 4 3 3 3 2 1 1 0 -0 -0 -1 -1 -0 0 1 1 2 2 3 3 4 4 5 5 5 5 6 6 7 7 7 7 7 7 7
4 4 5 5 4 4 4 4 4 4 3 2 2 2 1 0 -0 -0 -1 -1 -1 -1 -1 -0 0 1 1 2 2 3 3 4 4 5 5 5 5 5 6 6 6 6 6 6
4 4 4 4 4 4 4 4 3 3 2 1 1 1 1 -0 -0 -1 -1 -1 -1 -1 -1 -1 -1 -0 0 1 2 2 2 3 3 4 4 4 4 4 5 5 5 6 6 6
3 4 4 4 4 4 3 2 2 1 1 2 1 0 1 -1 -1 -1 -1 -2 -2 -2 -1 -1 -1 -1 -0 0 1 1 2 2 3 3 3 3 3 3 4 4 5 5 5 5
3 4 3 3 3 3 2 2 1 1 1 1 1 0 -0 -1 -1 -1 -2 -2 -2 -2 -2 -2 -1 -1 -1 -0 0 1 1 2 2 2 3 3 3 3 3 3 3 4 4 5
2 2 3 3 3 2 2 2 2 2 1 0 0 -0 -1 -1 -1 -2 -2 -2 -2 -2 -2 -2 -2 -2 -2 -1 -1 -0 0 1 1 1 2 2 2 2 2 2 3 3 3 4
2 2 3 3 3 2 2 1 1 -0 -1 -1 -1 -1 -2 -2 -2 -2 -3 -3 -3 -3 -3 -3 -3 -2 -2 -2 -1 -1 -1 -0 0 1 1 1 1 1 2 2 2 2 3 3
1 1 2 2 2 2 1 -0 -1 -0 -0 -0 -1 -1 -1 -2 -3 -3 -4 -4 -3 -3 -3 -3 -3 -3 -3 -2 -2 -2 -1 -1 -1 -0 -0 0 1 1 1 1 2 2 2 2
1 1 1 1 1 1 0 0 -1 -2 -1 -1 -1 -1 -2 -3 -3 -4 -4 -4 -4 -4 -4 -4 -3 -3 -3 -3 -3 -2 -2 -2 -1 -1 -1 -0 -0 0 0 1 1 1 2 2
-0 -1 -1 0 0 0 0 -1 -1 -1 -2 -3 -3 -2 -2 -4 -4 -4 -4 -4 -4 -4 -4 -4 -4 -4 -3 -3 -3 -3 -3 -2 -2 -2 -2 -1 -1 -0 -0 0 1 1 1 1
-0 -1 -1 0 0 -1 -1 -1 -1 -2 -2 -3 -3 -2 -3 -4 -4 -4 -4 -4 -5 -5 -5 -5 -4 -4 -4 -4 -4 -4 -3 -3 -3 -2 -2 -2 -1 -1 -1 -0 0 0 1 1
0 -2 -1 -0 -0 -1 -1 -1 -2 -2 -3 -4 -4 -3 -4 -4 -5 -5 -5 -5 -5 -5 -5 -5 -5 -5 -5 -5 -4 -4 -4 -4 -3 -3 -3 -2 -2 -2 -2 -1 -1 -0 -0 0
-1 -2 -2 -2 -2 -2 -2 -2 -2 -3 -3 -3 -3 -4 -4 -5 -6 -5 -5 -5 -6 -6 -6 -6 -6 -6 -6 -5 -5 -5 -5 -4 -4 -4 -3 -3 -3 -2 -2 -2 -1 -1 -1 -0
-3 -3 -3 -3 -2 -3 -3 -3 -3 -3 -3 -4 -4 -5 -6 -5 -5 -6 -6 -6 -6 -6 -6 -7 -6 -6 -6 -6 -6 -6 -5 -5 -5 -4 -4 -4 -4 -3 -3 -2 -2 -2 -1 -1
-4 -3 -3 -4 -4 -3 -4 -4 -4 -4 -5 -5 -5 -5 -6 -6 -6 -6 -6 -6 -6 -7 -7 -7 -7 -7 -7 -7 -7 -6 -6 -6 -5 -5 -5 -4 -4 -4 -4 -3 -3 -2 -2 -2
-4 -4 -4 -4 -4 -4 -4 -5 -5 -5 -6 -6 -6 -7 -7 -6 -6 -6 -6 -6 -7 -7 -7 -7 -7 -7 -7 -7 -7 -7 -6 -6 -6 -6 -5 -5 -5 -5 -4 -4 -3 -3 -3 -2
-5 -4 -5 -5 -5 -5 -5 -5 -6 -6 -6 -7 -7 -7 -7 -7 -7 -6 -6 -7 -7 -7 -8 -8 -8 -8 -8 -8 -7 -7 -7 -7 -6 -6 -6 -6 -5 -5 -5 -5 -4 -4 -3 -3
-6 -5 -5 -6 -5 -4 -5 -5 -5 -6 -7 -7 -7 -7 -7 -8 -8 -7 -7 -7 -7 -8 -8 -8 -8 -8 -8 -8 -8 -8 -8 -7 -7 -7 -7 -6 -6 -6 -5 -5 -5 -4 -4 -4
-6 -6 -6 -6 -6 -6 -6 -6 -6 -6 -6 -6 -6 -7 -7 -8 -8 -7 -7 -8 -8 -8 -8 -8 -8 -8 -8 -8 -9 -9 -8 -8 -8 -8 -7 -7 -6 -6 -6 -6 -5 -5 -5 -4
-6 -7 -7 -7 -7 -6 -6 -7 -7 -7 -6 -6 -6 -7 -7 -7 -7 -8 -8 -8 -8 -8 -8 -9 -9 -9 -9 -9 -9 -9 -9 -9 -8 -8 -8 -7 -7 -6 -6 -6 -6 -6 -6 -5
-7 -7 -7 -7 -6 -6 -6 -6 -5 -6 -6 -6 -7 -7 -7 -8 -8 -8 -8 -9 -9 -9 -9 -9 -9 -9 -9 -9 -9 -9 -9 -9 -9 -9 -8 -8 -7 -7 -7 -7 -7 -6 -6 -6
-8 -8 -8 -8 -8 -7 -6 -6 -6 -6 -6 -7 -7 -7 -8 -8 -8 -9 -9 -9 -9 -9 -9 -10 -10 -10 -9 -9 -9 -10 -10 -9 -9 -9 -9 -8 -8 -7 -7 -7 -7 -7 -7 -7
-8 -9 -9 -9 -9 -7 -6 -6 -6 -6 -7 -7 -7 -8 -8 -8 -9 -9 -9 -9 -9 -10 -10 -10 -10 -10 -10 -10 -10 -10 -10 -10 -9 -9 -9 -9 -8 -8 -8 -8 -8 -8 -7 -7
-9 -9 -9 -8 -7 -7 -6 -6 -6 -7 -7 -7 -8 -8 -8 -9 -9 -9 -9 -10 -10 -10 -10 -10 -10 -10 -10 -10 -10 -10 -10 -10 -10 -10 -9 -9 -9 -9 -9 -8 -8 -8 -8 -7

GEFSCGP_850_meantemp_258.txt.gz
Temperature
8 10 10 9 9 9 9 10 9 9 7 7 7 6 5 3 3 3 2 1 1 1 1 1 2 2 3 3 4 4 4 5 5 6 6 6 6 6 7 7 7 8 8 8
10 9 8 7 7 8 9 9 9 7 6 7 6 6 5 3 2 2 1 1 0 0 0 1 1 1 2 2 3 3 3 4 4 4 5 5 5 5 6 6 7 7 7 7
9 7 7 7 7 8 8 8 8 7 6 6 6 7 5 3 2 1 1 0 0 -0 -0 -0 -0 0 1 1 2 2 2 3 3 3 4 4 4 5 5 6 6 6 6 6
7 6 6 7 7 7 8 7 6 6 7 8 6 8 7 4 3 2 1 0 -0 -1 -1 -1 -1 -0 -0 0 1 1 2 2 2 3 3 3 3 4 4 5 5 5 5 6
7 6 6 6 6 6 6 5 6 6 7 7 6 6 8 4 3 3 1 0 -1 -1 -1 -1 -1 -1 -1 -0 0 1 1 1 2 2 2 2 3 3 3 4 4 5 5 5
6 5 5 5 5 5 5 5 5 5 6 6 6 6 8 5 3 3 1 0 -1 -2 -2 -2 -2 -1 -1 -1 -1 -0 0 1 1 1 1 2 2 2 2 3 3 4 4 4
6 5 5 4 5 5 5 7 7 7 7 7 5 5 6 3 2 2 1 -1 -1 -2 -2 -2 -2 -2 -2 -1 -1 -1 -0 -0 0 0 1 1 1 1 2 2 2 2 3 3
7 6 5 5 5 5 5 6 6 7 7 7 4 5 5 2 0 -0 -1 -1 -2 -2 -2 -3 -3 -2 -2 -2 -2 -2 -1 -1 -1 -0 -0 0 0 0 1 1 1 2 2 2
6 6 4 4 4 5 5 5 5 5 4 4 6 5 3 1 0 -0 -1 -2 -2 -3 -3 -3 -3 -3 -3 -2 -2 -2 -2 -2 -1 -1 -1 -1 -1 -0 -0 0 1 1 1 1
5 5 4 3 4 3 4 4 4 4 4 5 6 5 5 1 0 -0 -1 -2 -3 -3 -3 -3 -3 -3 -3 -3 -3 -3 -3 -2 -2 -2 -2 -2 -1 -1 -1 -0 0 0 0 0
4 4 4 4 4 4 3 3 4 4 4 4 5 5 2 1 0 -1 -1 -2 -3 -4 -4 -4 -4 -4 -3 -3 -3 -3 -3 -3 -3 -2 -2 -2 -2 -1 -1 -1 -1 -0 -0 -0
3 4 4 4 2 2 3 3 3 4 3 3 3 4 0 -0 -1 -2 -2 -3 -4 -4 -4 -4 -4 -4 -4 -4 -4 -4 -4 -3 -3 -3 -3 -3 -2 -2 -2 -2 -1 -1 -1 -1
2 3 4 4 3 2 2 2 2 2 2 2 2 3 -1 -1 -2 -2 -3 -3 -4 -5 -5 -5 -5 -5 -5 -4 -4 -4 -4 -4 -4 -4 -4 -3 -3 -3 -2 -2 -2 -2 -1 -1
2 2 3 5 4 2 2 1 1 1 1 2 2 2 0 -1 -1 -2 -3 -4 -4 -5 -5 -5 -5 -5 -5 -5 -5 -5 -5 -5 -5 -4 -4 -4 -4 -3 -3 -3 -3 -2 -2 -2
2 2 2 1 1 1 1 1 1 0 1 1 2 0 0 -1 -2 -3 -4 -4 -5 -5 -6 -6 -6 -6 -6 -6 -5 -5 -5 -5 -5 -5 -5 -5 -4 -4 -4 -4 -3 -3 -3 -2
1 1 -0 -0 -0 -1 -1 -0 0 -0 -0 -0 -0 -1 -1 -2 -3 -4 -4 -5 -5 -6 -6 -6 -7 -7 -7 -7 -6 -6 -6 -6 -6 -6 -5 -5 -5 -5 -5 -4 -4 -4 -3 -3
-0 -0 -0 1 -1 -1 0 -0 -1 -1 -2 -1 -1 -1 -2 -3 -4 -4 -5 -5 -6 -6 -6 -7 -7 -7 -7 -7 -7 -7 -7 -6 -6 -6 -6 -6 -6 -6 -5 -5 -5 -5 -4 -4
-1 -1 -0 -0 -1 -1 1 -2 -2 -2 -3 -3 -3 -3 -4 -4 -5 -5 -6 -6 -6 -7 -7 -7 -7 -8 -7 -7 -7 -7 -7 -7 -7 -7 -7 -7 -6 -6 -6 -6 -6 -6 -5 -5
-2 -1 -1 -1 -0 0 -1 -3 -3 -3 -3 -3 -4 -4 -5 -6 -6 -5 -6 -6 -7 -7 -7 -8 -8 -8 -8 -8 -8 -8 -8 -7 -7 -7 -7 -7 -7 -7 -7 -7 -6 -6 -6 -6
-3 -2 -1 -2 -1 0 0 -3 -5 -3 -3 -4 -5 -5 -5 -6 -4 -4 -6 -7 -7 -8 -8 -8 -8 -8 -8 -8 -8 -8 -8 -8 -8 -8 -8 -8 -8 -8 -8 -7 -7 -7 -7 -6
-3 -3 -2 -2 -1 -0 -2 -5 -4 -2 -2 -4 -5 -5 -6 -6 -5 -6 -7 -7 -8 -8 -8 -8 -8 -9 -9 -9 -9 -9 -9 -9 -9 -8 -8 -8 -8 -8 -8 -8 -8 -7 -7 -7
-2 -2 -3 -3 -2 -1 -4 -5 -3 -3 -4 -5 -5 -6 -6 -7 -7 -7 -8 -8 -8 -8 -8 -9 -9 -9 -9 -9 -9 -9 -9 -9 -9 -9 -9 -8 -8 -8 -8 -8 -8 -8 -7 -7
-3 -3 -2 -3 -2 -4 -5 -5 -5 -5 -5 -6 -6 -6 -7 -7 -8 -8 -8 -8 -9 -9 -9 -9 -9 -9 -9 -9 -10 -10 -10 -9 -9 -9 -9 -9 -9 -9 -9 -8 -8 -8 -8 -8
-4 -6 -5 -5 -4 -5 -6 -6 -5 -6 -6 -6 -6 -7 -7 -8 -8 -8 -8 -9 -9 -9 -9 -9 -10 -10 -10 -10 -10 -10 -10 -10 -10 -10 -9 -9 -9 -9 -9 -9 -9 -9 -8 -8
-4 -6 -5 -5 -5 -6 -6 -6 -6 -6 -6 -7 -7 -7 -8 -8 -8 -9 -9 -9 -9 -10 -10 -10 -10 -10 -10 -10 -10 -10 -10 -10 -10 -10 -10 -10 -10 -10 -10 -9 -9 -9 -9 -9
-6 -6 -5 -3 -4 -5 -5 -6 -6 -7 -7 -7 -8 -8 -8 -9 -9 -9 -9 -9 -10 -10 -10 -10 -10 -11 -11 -11 -10 -10 -11 -11 -11 -11 -10 -11 -11 -10 -10 -10 -9 -9 -9 -9

GEFSCGP_850_meantemp_264.txt.gz
Temperature
11 10 9 10 10 10 11 11 11 10 9 9 8 8 7 6 6 5 4 4 3 2 2 2 2 2 2 3 3 3 3 3 4 4 4 4 5 5 5 5 6 6 6 7
10 9 9 10 10 10 10 10 10 9 9 9 8 7 7 6 5 5 4 3 2 2 1 1 1 1 2 2 2 2 2 3 3 3 3 3 3 4 4 4 5 5 6 6
9 8 9 10 9 9 10 9 9 8 8 8 7 7 6 5 5 4 4 3 2 2 1 1 1 1 1 1 1 1 2 2 2 2 3 3 3 3 4 4 4 4 5 5
8 9 9 9 8 8 8 8 8 8 6 6 7 5 6 5 4 4 4 3 2 1 1 0 -0 -0 0 0 1 1 1 1 1 2 2 2 2 2 2 3 3 3 4 4
8 8 8 8 8 8 7 7 7 7 7 6 7 5 5 5 4 3 3 2 2 1 -0 -0 -1 -1 -1 -0 -0 0 0 0 1 1 1 1 1 1 2 2 2 3 3 3
7 7 7 7 7 7 7 7 7 7 6 5 6 5 5 4 4 3 3 2 1 0 -1 -1 -1 -1 -1 -1 -1 -1 -0 -0 0 0 0 0 0 1 1 1 1 2 2 2
7 7 7 7 6 6 6 5 5 5 5 5 6 6 4 4 4 3 2 2 1 -0 -1 -1 -1 -1 -1 -1 -1 -1 -1 -1 -1 -0 -0 -0 -0 -0 -0 0 0 1 1 2
7 6 6 6 6 5 6 6 5 5 5 5 5 4 3 3 3 2 2 1 0 -1 -1 -2 -2 -2 -2 -2 -2 -2 -2 -1 -1 -1 -1 -1 -1 -1 -1 -1 -0 -0 0 1
7 6 5 6 6 5 6 5 5 4 4 4 4 4 2 2 1 1 1 0 -0 -1 -2 -2 -2 -2 -2 -2 -2 -2 -2 -2 -2 -2 -2 -2 -2 -2 -1 -1 -1 -1 -1 -0
6 5 5 5 5 5 5 5 4 4 3 4 5 5 3 0 0 0 0 -0 -1 -1 -2 -2 -2 -3 -3 -3 -3 -3 -3 -3 -3 -3 -3 -3 -2 -2 -2 -2 -2 -2 -1 -1
6 5 4 4 4 4 4 4 4 4 4 3 3 3 2 1 0 -0 -0 -1 -1 -2 -2 -3 -3 -3 -3 -3 -3 -3 -3 -3 -3 -3 -3 -3 -3 -3 -3 -3 -2 -2 -2 -2
5 4 4 4 4 4 4 4 3 2 2 3 2 2 1 1 1 0 -0 -1 -1 -2 -3 -3 -3 -3 -4 -4 -4 -4 -4 -4 -4 -4 -4 -4 -4 -4 -4 -3 -3 -3 -3 -2
4 3 3 4 3 3 3 3 3 2 2 1 1 1 0 0 0 -0 -1 -1 -2 -2 -3 -3 -4 -4 -4 -4 -4 -4 -5 -4 -4 -4 -4 -4 -4 -4 -4 -4 -4 -4 -3 -3
4 3 3 3 3 3 2 2 2 1 -0 0 1 1 -0 -1 -1 -1 -1 -2 -2 -3 -3 -4 -4 -4 -5 -5 -5 -5 -5 -5 -5 -5 -5 -5 -5 -5 -5 -4 -4 -4 -4 -4
3 2 3 3 3 3 2 2 2 1 0 0 1 1 0 -1 -1 -1 -1 -2 -3 -3 -4 -4 -5 -5 -5 -5 -5 -5 -5 -5 -5 -5 -5 -5 -5 -5 -5 -5 -5 -5 -5 -4
2 1 1 1 2 2 1 1 1 1 1 0 0 -0 -1 -1 -1 -2 -2 -3 -3 -4 -4 -5 -5 -5 -6 -6 -6 -6 -6 -6 -6 -6 -6 -6 -6 -6 -6 -6 -6 -5 -5 -5
1 0 0 1 1 1 -0 -0 0 -0 -1 -1 -1 -2 -2 -2 -2 -2 -3 -3 -4 -4 -5 -5 -6 -6 -6 -6 -7 -6 -6 -6 -6 -6 -6 -6 -6 -6 -6 -6 -6 -6 -6 -6
0 0 -0 -0 0 -1 0 -0 -1 -1 -2 -2 -2 -3 -2 -2 -3 -3 -3 -4 -4 -5 -6 -6 -6 -6 -7 -7 -7 -7 -7 -7 -7 -7 -7 -7 -7 -7 -7 -7 -6 -6 -6 -6
-0 -0 -1 -1 -1 -0 -1 -1 -2 -2 -3 -3 -3 -3 -3 -3 -4 -4 -4 -4 -5 -6 -6 -6 -7 -7 -7 -7 -7 -7 -7 -7 -7 -7 -7 -7 -7 -7 -7 -7 -7 -7 -7 -7
-2 -1 -2 -1 -1 -1 -1 -2 -2 -3 -4 -3 -3 -3 -4 -4 -6 -5 -4 -5 -6 -6 -6 -7 -7 -7 -7 -7 -8 -8 -8 -8 -8 -8 -8 -8 -8 -8 -8 -8 -8 -7 -7 -7
-3 -2 -3 -2 -2 -1 -3 -3 -2 -3 -3 -3 -3 -3 -4 -5 -5 -5 -5 -6 -6 -7 -7 -7 -7 -8 -8 -8 -8 -8 -8 -8 -8 -8 -8 -8 -8 -8 -8 -8 -8 -8 -8 -8
-3 -3 -3 -2 -2 -2 -4 -4 -4 -4 -3 -3 -3 -4 -4 -5 -5 -6 -6 -7 -7 -7 -7 -8 -8 -8 -8 -9 -9 -9 -9 -9 -9 -9 -8 -8 -8 -9 -9 -9 -8 -8 -9 -9
-2 -3 -3 -3 -3 -3 -3 -3 -3 -3 -4 -4 -4 -4 -5 -6 -6 -7 -7 -7 -8 -8 -8 -8 -8 -8 -9 -9 -9 -9 -9 -10 -9 -9 -9 -9 -9 -9 -9 -9 -9 -9 -9 -9
-3 -3 -3 -4 -4 -3 -3 -3 -3 -4 -4 -4 -5 -5 -6 -6 -7 -7 -8 -8 -8 -8 -9 -9 -9 -9 -9 -9 -10 -10 -10 -10 -10 -10 -10 -10 -10 -9 -9 -10 -10 -10 -10 -10
-3 -5 -4 -5 -4 -4 -3 -4 -4 -4 -5 -5 -6 -6 -7 -7 -7 -8 -8 -8 -9 -9 -9 -9 -9 -10 -10 -10 -10 -10 -10 -10 -10 -10 -10 -10 -10 -10 -10 -10 -10 -10 -10 -10
-4 -5 -5 -4 -4 -5 -4 -4 -5 -5 -6 -6 -7 -7 -7 -8 -8 -8 -9 -9 -9 -9 -9 -10 -10 -10 -10 -10 -10 -10 -10 -11 -11 -11 -11 -11 -11 -11 -11 -11 -10 -10 -10 -10

GEFSCGP_850_meantemp_270.txt.gz
Temperature
8 6 5 6 6 8 7 7 7 6 6 6 5 4 3 3 2 2 1 1 1 2 2 2 2 2 2 2 3 3 3 3 3 3 3 4 4 4 4 4 4 5 5 5
6 6 6 7 7 8 7 7 6 6 6 6 4 4 3 3 2 2 1 1 1 1 1 1 2 2 2 2 2 2 2 2 2 2 2 2 3 3 3 3 4 4 4 4
6 6 7 7 7 7 7 6 6 6 5 5 5 3 2 2 2 2 1 1 1 1 1 1 1 1 1 1 1 1 1 1 1 1 1 2 2 3 3 3 3 3 3 4
6 6 7 6 6 6 6 6 6 5 4 4 4 3 2 1 1 1 1 1 0 0 0 1 1 1 0 1 1 1 1 1 1 1 1 1 1 1 2 2 2 2 2 3
5 5 6 6 6 6 5 6 5 5 4 3 3 3 2 1 1 0 -0 0 0 0 0 0 0 0 0 0 0 0 -0 0 -0 -0 0 0 0 0 1 1 1 1 2 2
5 5 5 5 5 5 5 4 4 2 2 3 3 2 2 1 1 0 -0 0 -0 -0 -0 -0 -0 -0 -0 -0 -1 -0 -0 -1 -1 -1 -0 -0 -0 -0 0 0 0 0 1 1
5 5 5 5 5 5 4 3 3 3 2 3 3 2 2 1 1 0 -0 -0 -0 -0 -1 -1 -1 -1 -1 -1 -1 -1 -1 -1 -1 -1 -1 -1 -1 -1 -1 -1 -1 -1 -0 0
4 4 4 4 4 3 3 3 4 4 3 2 2 1 1 0 0 1 0 0 -0 -1 -1 -1 -1 -1 -1 -1 -1 -2 -2 -2 -2 -2 -2 -1 -1 -2 -1 -1 -1 -1 -1 -1
4 4 4 4 4 4 3 2 2 2 1 1 1 0 0 -0 -0 -1 -1 -1 -1 -1 -1 -1 -1 -2 -2 -2 -2 -2 -2 -2 -2 -2 -2 -2 -2 -2 -2 -2 -2 -2 -2 -2
3 3 3 3 4 3 3 2 1 1 2 2 2 1 1 -0 -1 -2 -2 -2 -2 -2 -2 -2 -2 -2 -2 -2 -2 -3 -3 -3 -3 -3 -3 -3 -3 -3 -3 -3 -3 -3 -3 -3
3 3 2 3 2 2 2 2 1 0 0 1 1 2 1 -0 -1 -2 -2 -2 -2 -2 -2 -2 -2 -2 -3 -3 -3 -3 -3 -3 -3 -3 -4 -4 -3 -3 -3 -3 -3 -3 -3 -3
2 1 1 2 2 2 2 1 1 1 0 -1 -1 1 -0 -1 -1 -1 -2 -1 -1 -2 -2 -2 -3 -3 -3 -3 -3 -4 -4 -4 -4 -4 -4 -4 -4 -4 -4 -4 -4 -4 -4 -4
2 1 2 3 2 1 1 1 0 0 -0 -1 -1 0 -1 -2 -2 -2 -2 -2 -2 -2 -2 -3 -3 -3 -4 -4 -4 -4 -4 -4 -4 -5 -5 -5 -5 -5 -4 -4 -4 -4 -4 -4
2 0 1 3 3 1 1 1 0 -0 -1 -1 -1 -0 -2 -2 -3 -2 -2 -2 -2 -3 -3 -3 -3 -4 -4 -4 -4 -4 -5 -5 -5 -5 -5 -5 -5 -5 -5 -5 -5 -5 -5 -5
1 0 0 0 1 1 1 1 0 -0 -1 -1 -1 -2 -1 -2 -3 -2 -2 -2 -3 -3 -3 -4 -4 -4 -5 -5 -5 -5 -5 -5 -5 -5 -6 -6 -6 -6 -6 -5 -5 -5 -6 -6
-1 -0 -0 -0 0 -0 -0 0 -0 -0 -1 -1 -2 -2 -2 -2 -2 -3 -2 -3 -3 -3 -4 -4 -4 -5 -5 -5 -5 -5 -6 -6 -6 -6 -6 -6 -6 -6 -6 -6 -6 -6 -6 -6
-2 -1 -1 -1 -1 -0 -1 -1 -1 -2 -2 -2 -2 -2 -3 -4 -4 -3 -3 -3 -3 -4 -4 -5 -5 -5 -6 -6 -6 -6 -6 -6 -6 -6 -7 -7 -7 -7 -7 -7 -7 -7 -7 -7
-2 -2 -2 -2 -2 -1 -0 -2 -2 -3 -3 -4 -4 -4 -4 -4 -3 -3 -3 -4 -4 -4 -4 -5 -5 -6 -6 -6 -6 -7 -7 -7 -7 -7 -7 -7 -7 -7 -7 -7 -7 -7 -7 -7
-2 -2 -3 -3 -3 -2 -2 -2 -3 -3 -4 -5 -5 -5 -4 -4 -4 -4 -4 -4 -4 -5 -5 -5 -6 -6 -6 -7 -7 -7 -7 -7 -7 -7 -7 -8 -8 -8 -8 -8 -8 -8 -8 -8
-3 -3 -3 -3 -2 -2 -1 -3 -3 -3 -4 -4 -4 -5 -5 -5 -6 -5 -4 -5 -5 -5 -6 -6 -6 -7 -7 -7 -7 -8 -8 -8 -8 -8 -8 -8 -8 -8 -8 -8 -8 -8 -8 -8
-3 -4 -4 -4 -3 -3 -4 -4 -3 -3 -3 -3 -3 -4 -5 -6 -5 -4 -5 -5 -6 -6 -6 -7 -7 -7 -7 -8 -8 -8 -8 -8 -8 -8 -8 -8 -8 -8 -8 -8 -8 -9 -9 -9
-4 -4 -4 -4 -4 -3 -4 -5 -4 -4 -3 -3 -3 -3 -4 -4 -5 -5 -6 -6 -6 -7 -7 -7 -7 -8 -8 -8 -8 -8 -8 -9 -9 -9 -9 -9 -9 -9 -9 -9 -9 -9 -9 -9
-4 -4 -4 -4 -3 -4 -4 -4 -3 -3 -3 -3 -3 -4 -4 -5 -5 -6 -6 -7 -7 -7 -7 -8 -8 -8 -8 -9 -9 -9 -9 -9 -9 -9 -9 -9 -9 -9 -9 -9 -9 -9 -10 -10
-5 -5 -5 -6 -5 -5 -4 -3 -3 -3 -3 -4 -4 -4 -5 -5 -6 -7 -7 -7 -8 -8 -8 -8 -8 -9 -9 -9 -9 -9 -10 -10 -10 -10 -10 -10 -10 -10 -10 -10 -10 -10 -10 -10
-5 -6 -6 -6 -6 -5 -4 -4 -4 -4 -4 -5 -5 -5 -6 -6 -7 -7 -8 -8 -8 -8 -8 -9 -9 -9 -9 -9 -10 -10 -10 -10 -10 -10 -10 -10 -10 -10 -10 -10 -10 -11 -10 -11
-6 -6 -6 -5 -4 -5 -4 -4 -4 -5 -5 -5 -6 -6 -7 -7 -8 -8 -8 -8 -9 -9 -9 -9 -9 -10 -10 -10 -10 -10 -10 -11 -11 -11 -11 -11 -11 -11 -11 -11 -11 -11 -11 -11